Flag for U.S.A. Weather past 2 weeks in Sacramento, California, U.S.A.

Now
65 °F

Clear.


Feels Like: 65 °F
Forecast: 64 / 93 °F
Wind: 5 mph from North

Location: Sacramento Executive Airport

Current Time: Jul 31, 2015 at 5:22:19 AM

Latest Report: Jul 31, 2015 at 4:53 AM


Visibility: 10 mi

Pressure: 29.92 "Hg

Humidity: 78%

Dew point: 58 °F

Location of SacramentoLocation

Historic Weather in Sacramento — Graph

°F

Sacramento temperature yesterday

Maximum temperature yesterday: 99 °F (at 3:53 PM)
Minimum temperature yesterday: 65 °F (at 6:53 AM)
Average temperature yesterday: 79 °F

Past Weeks' High & Low Weather Summary

 TemperatureHumidityPressure
High106 °F (Jul 29, 4:53 PM)87% (Jul 26, 3:53 AM)30.09 "Hg (Jul 26, 3:53 AM)
Low59 °F (Jul 23, 3:53 AM)7% (Jul 27, 5:53 PM)29.68 "Hg (Jul 17, 7:53 PM)
Average76 °F51%29.88 "Hg
* Reported Jul 16 3:53 AM — Jul 31 3:53 AM, Sacramento, Weather by CustomWeather, © 2015

Note: Actual official high and low records may vary slightly from our data, if they occured in-between our weather recording intervals... More about our weather records

Advertising

Sacramento weather history for previous 24 hours

 ConditionsComfort  
Time TempWeatherWind HumidityBarometerVisibility
3:53 AM
Fri, Jul 31
65 °FClear.5 mph78%29.91 "Hg10 mi
2:53 AM67 °FClear.8 mph73%29.92 "Hg10 mi
1:53 AM69 °FClear.7 mph66%29.92 "Hg10 mi
12:53 AM71 °FClear.7 mph61%29.93 "Hg10 mi
11:53 PM
Thu, Jul 30
72 °FClear.6 mph57%29.91 "Hg10 mi
10:53 PM73 °FClear.5 mph55%29.91 "Hg10 mi
9:53 PM76 °FClear.8 mph48%29.90 "Hg10 mi
8:53 PM80 °FSunny.5 mph42%29.88 "Hg10 mi
7:53 PM84 °FSunny.8 mph38%29.85 "Hg10 mi
6:53 PM90 °FSunny.12 mph34%29.85 "Hg10 mi
5:53 PM95 °FSunny.10 mph30%29.85 "Hg10 mi
4:53 PM98 °FSunny.9 mph22%29.86 "Hg10 mi
3:53 PM99 °FSunny.6 mph21%29.87 "Hg10 mi
2:53 PM96 °FSunny.10 mph23%29.90 "Hg10 mi
1:53 PM93 °FSunny.8 mph30%29.93 "Hg10 mi
12:53 PM90 °FSunny.7 mph34%29.95 "Hg10 mi
11:53 AM86 °FSunny.8 mph37%29.96 "Hg10 mi
10:53 AM81 °FSunny.8 mph44%29.97 "Hg10 mi
9:53 AM76 °FSunny.7 mph54%29.97 "Hg10 mi
8:53 AM71 °FSunny.5 mph63%29.96 "Hg10 mi
7:53 AM67 °FSunny.7 mph71%29.95 "Hg10 mi
6:53 AM65 °FClear.7 mph73%29.93 "Hg10 mi
5:53 AM66 °FClear.5 mph68%29.90 "Hg10 mi
Weather by CustomWeather, © 2015

See weather overviewHow to use our weather pages